contact:dominique.lefevre@mio.osupytheas.fr, maurice.libes@osupytheas.fr, didier.mallarino@osupytheas.fr
Project:EMSO http://www.emso-fr.org/EMSO-France
Depth: 2436.0 m
Title:EMSO Ligure Ouest : Data MII capteur AQUADOPP
Date,Latitude,Longitude,X_East,Y_North,Z_Up,Amplitude_X,Amplitude_Y,Amplitude_Z,Batterie,SoundSpeed,Heading,Pitch,Roll,Pressure,TIS,Speed,Direction
, degrees North, degrees East, m.s-1, m.s-1,m.s-1, 1, 1, 1, Volt, m.s-1, degree, degree, degree, dbar, degree_C, m.s-1, degree
2022-12-26T00:04:03,42.805,6.029,-0.001,-0.029,-0.004,101.0,100.0,102.0,13.3,1505.2,327.9,-0.8,1.8,2471.265,13.28,0.029,182.0
2022-12-26T00:07:03,42.805,6.029,-0.004,-0.039,0.021,101.0,102.0,101.0,13.4,1505.2,332.6,-0.8,1.8,2471.239,13.29,0.039,185.9
2022-12-26T00:10:03,42.805,6.029,-0.003,-0.005,0.014,101.0,101.0,102.0,13.3,1505.2,323.9,-0.8,1.8,2471.24,13.29,0.005,211.0
2022-12-26T00:13:03,42.805,6.029,-0.02,-0.051,-0.029,101.0,101.0,102.0,13.3,1505.2,326.5,-0.7,1.9,2471.19,13.29,0.054,201.4
2022-12-26T00:16:03,42.805,6.029,0.019,-0.019,0.021,101.0,100.0,103.0,13.3,1505.2,337.0,-0.8,1.8,2471.208,13.29,0.026,135.0
2022-12-26T00:19:03,42.805,6.029,-0.023,-0.037,-0.011,101.0,103.0,103.0,13.4,1505.2,330.5,-0.8,1.8,2471.172,13.29,0.043,211.9
2022-12-26T00:22:03,42.805,6.029,0.007,-0.046,-0.028,102.0,101.0,101.0,13.4,1505.2,326.7,-0.8,1.9,2471.202,13.29,0.046,171.3
2022-12-26T00:25:03,42.805,6.029,0.0,-0.033,0.007,101.0,101.0,102.0,13.3,1505.2,323.8,-0.8,1.8,2471.178,13.29,0.033,180.0
2022-12-26T00:28:03,42.805,6.029,-0.004,-0.034,0.004,100.0,100.0,102.0,13.4,1505.2,327.3,-0.7,1.8,2471.144,13.29,0.034,186.7
2022-12-26T00:31:03,42.805,6.029,0.009,-0.045,0.007,99.0,103.0,102.0,13.4,1505.2,319.7,-0.7,1.8,2471.185,13.29,0.045,168.7
2022-12-26T00:34:03,42.805,6.029,0.001,-0.012,0.016,101.0,100.0,102.0,13.3,1505.2,320.8,-0.7,1.8,2471.183,13.29,0.012,175.2
2022-12-26T00:37:03,42.805,6.029,-0.01,-0.028,0.014,101.0,101.0,101.0,13.4,1505.2,332.1,-0.8,1.8,2471.16,13.29,0.029,199.6
2022-12-26T00:40:03,42.805,6.029,0.01,-0.02,0.028,100.0,102.0,102.0,13.3,1505.2,318.3,-0.8,1.8,2471.167,13.29,0.022,153.4
2022-12-26T00:43:03,42.805,6.029,-0.021,-0.017,0.009,102.0,101.0,102.0,13.4,1505.2,337.7,-0.8,1.8,2471.17,13.29,0.027,231.0
2022-12-26T00:46:03,42.805,6.029,-0.002,-0.017,0.007,100.0,101.0,102.0,13.4,1505.2,327.7,-0.8,1.8,2471.122,13.29,0.017,186.7
2022-12-26T00:49:03,42.805,6.029,-0.016,-0.033,-0.004,101.0,100.0,102.0,13.4,1505.2,325.3,-0.8,1.8,2471.163,13.29,0.036,205.9
2022-12-26T00:52:03,42.805,6.029,0.008,-0.025,0.01,101.0,100.0,103.0,13.4,1505.2,326.5,-0.8,1.8,2471.132,13.29,0.026,162.3
2022-12-26T00:55:03,42.805,6.029,-0.025,-0.032,-0.024,103.0,100.0,104.0,13.4,1505.2,329.4,-0.8,1.8,2471.153,13.29,0.04,218.0
2022-12-26T00:58:03,42.805,6.029,-0.009,-0.024,0.009,100.0,102.0,102.0,13.3,1505.2,330.3,-0.8,1.8,2471.135,13.29,0.025,200.6
2022-12-26T02:04:03,42.805,6.029,-0.041,-0.003,0.01,101.0,101.0,102.0,13.4,1505.1,328.9,-0.8,1.8,2471.592,13.27,0.041,265.8
2022-12-26T02:07:03,42.805,6.029,-0.006,-0.012,0.009,102.0,101.0,102.0,13.3,1505.2,335.3,-0.7,1.8,2471.507,13.28,0.013,206.6
2022-12-26T02:10:03,42.805,6.029,-0.026,-0.032,-0.034,100.0,102.0,102.0,13.4,1505.2,331.5,-0.8,1.8,2471.389,13.28,0.041,219.1
2022-12-26T02:13:03,42.805,6.029,0.0,-0.018,0.015,101.0,101.0,102.0,13.3,1505.2,334.1,-0.8,1.8,2471.35,13.28,0.018,180.0
2022-12-26T02:16:03,42.805,6.029,-0.008,-0.018,0.014,101.0,100.0,102.0,13.3,1505.2,318.4,-0.8,1.8,2471.242,13.28,0.019,204.0
2022-12-26T02:19:03,42.805,6.029,0.02,-0.025,0.037,101.0,100.0,102.0,13.3,1505.2,328.4,-0.8,1.8,2471.256,13.28,0.032,141.3
2022-12-26T02:22:03,42.805,6.029,0.016,-0.055,-0.012,101.0,103.0,101.0,13.4,1505.2,318.5,-0.8,1.8,2471.207,13.29,0.057,163.8
2022-12-26T02:25:03,42.805,6.029,-0.009,-0.022,0.002,101.0,101.0,103.0,13.3,1505.2,324.5,-0.8,1.8,2471.18,13.29,0.023,202.2
2022-12-26T02:28:03,42.805,6.029,0.003,-0.03,0.002,101.0,101.0,102.0,13.4,1505.2,326.3,-0.8,1.8,2471.127,13.29,0.03,174.3
2022-12-26T02:31:03,42.805,6.029,-0.01,-0.012,0.0,101.0,101.0,102.0,13.4,1505.2,319.0,-0.8,1.8,2471.155,13.29,0.015,219.8
2022-12-26T02:34:03,42.805,6.029,0.013,-0.025,0.025,101.0,101.0,102.0,13.3,1505.2,329.3,-0.8,1.8,2471.158,13.29,0.028,152.5
2022-12-26T02:37:03,42.805,6.029,0.011,-0.022,0.034,101.0,101.0,102.0,13.3,1505.2,331.4,-0.8,1.8,2471.115,13.29,0.024,153.4
2022-12-26T02:40:03,42.805,6.029,0.013,-0.021,0.021,101.0,101.0,102.0,13.4,1505.2,337.2,-0.8,1.8,2471.139,13.29,0.024,148.2
2022-12-26T02:43:03,42.805,6.029,0.0,-0.018,0.009,102.0,99.0,102.0,13.4,1505.2,321.2,-0.7,1.8,2471.106,13.29,0.018,180.0
2022-12-26T02:46:03,42.805,6.029,-0.021,-0.021,-0.005,100.0,101.0,103.0,13.4,1505.2,336.2,-0.8,1.8,2471.125,13.29,0.029,225.0
2022-12-26T02:49:03,42.805,6.029,-0.012,-0.012,0.016,100.0,101.0,101.0,13.3,1505.2,333.4,-0.8,1.8,2471.125,13.29,0.016,225.0
2022-12-26T02:52:03,42.805,6.029,0.007,-0.01,0.033,101.0,101.0,102.0,13.3,1505.2,316.5,-0.7,1.8,2471.094,13.29,0.012,145.0
2022-12-26T02:55:03,42.805,6.029,-0.001,-0.014,0.036,100.0,101.0,102.0,13.4,1505.2,322.9,-0.8,1.8,2471.146,13.29,0.014,184.1
2022-12-26T02:58:03,42.805,6.029,-0.006,-0.017,0.002,101.0,101.0,102.0,13.4,1505.2,333.7,-0.8,1.8,2471.122,13.29,0.018,199.4
2022-12-26T03:04:03,42.805,6.029,-0.006,-0.017,0.015,101.0,101.0,102.0,13.3,1505.2,329.1,-0.8,1.8,2471.158,13.28,0.018,199.4
2022-12-26T03:07:03,42.805,6.029,0.005,-0.013,0.038,101.0,101.0,101.0,13.4,1505.2,329.7,-0.8,1.8,2471.14,13.28,0.013,159.0
2022-12-26T03:10:03,42.805,6.029,0.022,-0.036,0.014,100.0,101.0,102.0,13.4,1505.2,321.2,-0.8,1.9,2471.175,13.28,0.042,148.6
2022-12-26T03:13:03,42.805,6.029,0.014,-0.034,0.021,101.0,101.0,102.0,13.4,1505.2,329.7,-0.8,1.9,2471.126,13.29,0.036,157.6
2022-12-26T03:16:03,42.805,6.029,-0.039,-0.016,0.007,100.0,101.0,101.0,13.3,1505.2,326.9,-0.8,1.8,2471.111,13.29,0.042,247.7
2022-12-26T03:19:03,42.805,6.029,-0.009,-0.014,0.022,101.0,101.0,102.0,13.4,1505.2,326.3,-0.8,1.8,2471.15,13.29,0.016,212.7
2022-12-26T03:22:03,42.805,6.029,-0.002,-0.017,0.003,101.0,101.0,103.0,13.3,1505.2,319.8,-0.8,1.8,2471.083,13.29,0.017,186.7
2022-12-26T03:25:03,42.805,6.029,0.003,-0.019,0.003,100.0,100.0,102.0,13.3,1505.2,327.4,-0.8,1.8,2471.143,13.29,0.019,171.0
2022-12-26T03:28:03,42.805,6.029,-0.005,-0.037,-0.008,101.0,101.0,102.0,13.4,1505.2,331.3,-0.7,1.8,2471.14,13.29,0.037,187.7
2022-12-26T03:31:03,42.805,6.029,0.009,-0.032,-0.008,100.0,101.0,102.0,13.4,1505.2,326.9,-0.8,1.8,2471.153,13.29,0.033,164.3
2022-12-26T03:34:03,42.805,6.029,0.012,-0.021,0.014,101.0,101.0,101.0,13.4,1505.2,323.2,-0.8,1.8,2471.1,13.29,0.024,150.3
2022-12-26T03:37:03,42.805,6.029,0.012,-0.033,0.009,101.0,99.0,102.0,13.3,1505.2,331.8,-0.8,1.8,2471.135,13.29,0.035,160.0
2022-12-26T03:40:03,42.805,6.029,0.0,-0.015,0.006,101.0,100.0,102.0,13.4,1505.2,324.0,-0.8,1.8,2471.063,13.29,0.015,180.0
2022-12-26T03:43:03,42.805,6.029,0.009,-0.018,0.038,101.0,102.0,102.0,13.4,1505.2,329.0,-0.8,1.8,2471.113,13.29,0.02,153.4
2022-12-26T03:46:03,42.805,6.029,0.002,-0.026,0.011,101.0,101.0,102.0,13.4,1505.2,337.7,-0.7,1.8,2471.074,13.29,0.026,175.6
2022-12-26T03:49:03,42.805,6.029,0.005,-0.027,-0.004,101.0,101.0,102.0,13.3,1505.2,330.3,-0.7,1.8,2471.124,13.29,0.027,169.5
2022-12-26T03:52:03,42.805,6.029,-0.009,-0.028,-0.016,100.0,102.0,102.0,13.4,1505.2,329.2,-0.8,1.8,2471.137,13.29,0.029,197.8
2022-12-26T03:55:03,42.805,6.029,-0.017,-0.016,0.005,100.0,101.0,103.0,13.4,1505.2,325.0,-0.8,1.8,2471.103,13.29,0.023,226.7
2022-12-26T03:58:03,42.805,6.029,0.001,0.014,0.052,101.0,101.0,101.0,13.4,1505.2,319.7,-0.8,1.8,2471.121,13.29,0.014,4.1
2022-12-26T04:04:03,42.805,6.029,-0.005,-0.023,-0.014,101.0,101.0,102.0,13.4,1505.2,330.0,-0.8,1.8,2471.194,13.28,0.023,192.3
2022-12-26T04:07:03,42.805,6.029,-0.006,-0.014,0.015,102.0,101.0,102.0,13.3,1505.2,332.3,-0.8,1.8,2471.185,13.28,0.015,203.2
2022-12-26T04:10:03,42.805,6.029,0.0,-0.016,0.026,101.0,101.0,102.0,13.4,1505.2,325.3,-0.8,1.8,2471.146,13.28,0.016,180.0
2022-12-26T04:13:03,42.805,6.029,0.012,-0.019,0.009,100.0,101.0,101.0,13.4,1505.2,327.8,-0.8,1.9,2471.158,13.29,0.022,147.7
2022-12-26T04:16:03,42.805,6.029,0.001,-0.011,0.006,100.0,102.0,102.0,13.3,1505.2,323.9,-0.7,1.8,2471.163,13.29,0.011,174.8
2022-12-26T04:19:03,42.805,6.029,0.016,-0.023,0.017,102.0,101.0,102.0,13.3,1505.2,319.8,-0.7,1.8,2471.166,13.29,0.028,145.2
2022-12-26T04:22:03,42.805,6.029,0.012,-0.028,0.001,101.0,101.0,102.0,13.3,1505.2,333.8,-0.8,1.8,2471.149,13.29,0.03,156.8
2022-12-26T04:25:03,42.805,6.029,-0.004,-0.03,-0.008,102.0,100.0,102.0,13.3,1505.2,317.9,-0.8,1.8,2471.138,13.29,0.03,187.6
2022-12-26T04:28:03,42.805,6.029,0.013,-0.025,0.0,101.0,101.0,103.0,13.3,1505.2,323.7,-0.7,1.8,2471.115,13.29,0.028,152.5
2022-12-26T04:31:03,42.805,6.029,-0.012,-0.012,0.0,101.0,101.0,101.0,13.4,1505.2,322.4,-0.8,1.8,2471.137,13.29,0.016,225.0
2022-12-26T04:34:03,42.805,6.029,0.022,-0.015,0.054,101.0,101.0,101.0,13.4,1505.2,318.0,-0.8,1.8,2471.176,13.29,0.026,124.3
2022-12-26T04:37:03,42.805,6.029,0.004,-0.01,0.019,102.0,102.0,101.0,13.4,1505.2,318.2,-0.8,1.8,2471.126,13.29,0.01,158.2
2022-12-26T04:40:03,42.805,6.029,0.044,-0.011,0.046,100.0,100.0,103.0,13.3,1505.2,322.9,-0.8,1.8,2471.149,13.29,0.045,104.0
2022-12-26T04:43:03,42.805,6.029,0.025,-0.037,-0.007,100.0,101.0,103.0,13.4,1505.2,320.4,-0.8,1.8,2471.141,13.29,0.044,146.0
2022-12-26T04:46:03,42.805,6.029,0.016,-0.022,0.025,99.0,104.0,103.0,13.3,1505.2,328.2,-0.8,1.8,2471.152,13.29,0.027,144.0
2022-12-26T04:49:03,42.805,6.029,0.007,0.0,0.058,101.0,101.0,102.0,13.3,1505.2,322.8,-0.8,1.8,2471.149,13.29,0.007,90.0
2022-12-26T04:52:03,42.805,6.029,0.01,-0.026,0.009,101.0,101.0,101.0,13.4,1505.2,335.7,-0.8,1.8,2471.171,13.29,0.027,159.0
2022-12-26T04:55:03,42.805,6.029,0.032,-0.037,0.027,102.0,100.0,102.0,13.4,1505.2,329.1,-0.7,1.8,2471.12,13.29,0.048,139.1
2022-12-26T04:58:03,42.805,6.029,0.007,-0.032,0.002,101.0,101.0,102.0,13.4,1505.2,333.0,-0.7,1.8,2471.175,13.29,0.032,167.7
2022-12-26T05:04:03,42.805,6.029,0.027,-0.022,0.027,101.0,101.0,102.0,13.3,1505.2,322.7,-0.8,1.8,2471.19,13.28,0.034,129.2
2022-12-26T05:07:03,42.805,6.029,0.011,-0.023,0.008,101.0,100.0,103.0,13.4,1505.2,318.8,-0.8,1.8,2471.175,13.28,0.025,154.4
2022-12-26T05:10:03,42.805,6.029,0.005,-0.023,-0.006,101.0,102.0,101.0,13.3,1505.2,317.1,-0.7,1.8,2471.166,13.28,0.023,167.7
2022-12-26T05:13:03,42.805,6.029,0.0,-0.006,0.047,101.0,101.0,102.0,13.3,1505.2,316.0,-0.7,1.8,2471.198,13.28,0.006,180.0
2022-12-26T05:16:03,42.805,6.029,0.002,-0.022,0.028,101.0,102.0,102.0,13.3,1505.2,317.5,-0.8,1.8,2471.201,13.28,0.022,174.8
2022-12-26T05:19:03,42.805,6.029,0.006,-0.047,0.001,101.0,101.0,102.0,13.4,1505.2,337.3,-0.8,1.8,2471.2,13.29,0.047,172.7
2022-12-26T05:22:03,42.805,6.029,0.021,-0.004,0.011,100.0,101.0,102.0,13.4,1505.2,317.4,-0.8,1.8,2471.183,13.29,0.021,100.8
2022-12-26T05:25:03,42.805,6.029,0.003,-0.018,0.003,100.0,102.0,102.0,13.4,1505.2,326.9,-0.8,1.8,2471.195,13.29,0.018,170.5
2022-12-26T05:28:03,42.805,6.029,-0.011,-0.035,-0.023,101.0,101.0,102.0,13.3,1505.2,332.6,-0.8,1.8,2471.189,13.29,0.036,197.4
2022-12-26T05:31:03,42.805,6.029,0.024,-0.022,0.036,101.0,101.0,102.0,13.4,1505.2,320.7,-0.8,1.8,2471.158,13.29,0.032,132.5
2022-12-26T05:34:03,42.805,6.029,0.024,-0.003,0.056,102.0,101.0,102.0,13.3,1505.2,330.5,-0.8,1.8,2471.215,13.29,0.024,97.1
2022-12-26T05:37:03,42.805,6.029,0.035,-0.03,0.019,100.0,102.0,102.0,13.4,1505.2,322.2,-0.8,1.8,2471.207,13.29,0.046,130.6
2022-12-26T05:40:03,42.805,6.029,-0.022,-0.012,0.026,102.0,100.0,102.0,13.4,1505.2,326.3,-0.8,1.8,2471.215,13.29,0.025,241.4
2022-12-26T05:43:03,42.805,6.029,0.0,-0.003,0.02,103.0,102.0,101.0,13.3,1505.2,330.9,-0.8,1.8,2471.228,13.29,0.003,180.0
2022-12-26T05:46:03,42.805,6.029,-0.001,-0.024,0.002,102.0,102.0,101.0,13.4,1505.2,325.2,-0.8,1.8,2471.168,13.29,0.024,182.4
2022-12-26T05:49:03,42.805,6.029,0.022,-0.006,0.021,101.0,102.0,101.0,13.3,1505.2,324.4,-0.7,1.8,2471.206,13.29,0.022,105.3
2022-12-26T05:52:03,42.805,6.029,0.009,-0.021,0.02,102.0,104.0,101.0,13.4,1505.2,320.9,-0.8,1.8,2471.178,13.29,0.022,156.8
2022-12-26T05:55:03,42.805,6.029,0.013,-0.027,-0.006,102.0,100.0,102.0,13.3,1505.2,323.7,-0.8,1.8,2471.221,13.29,0.029,154.3
2022-12-26T05:58:03,42.805,6.029,0.024,-0.018,0.041,101.0,104.0,102.0,13.4,1505.2,332.1,-0.7,1.8,2471.244,13.29,0.03,126.9
2022-12-26T06:04:03,42.805,6.029,0.006,-0.018,0.022,101.0,103.0,102.0,13.3,1505.2,317.6,-0.7,1.8,2471.301,13.28,0.018,161.6
2022-12-26T06:07:03,42.805,6.029,0.006,0.0,0.045,102.0,101.0,102.0,13.4,1505.2,318.7,-0.8,1.8,2471.244,13.28,0.006,90.0
2022-12-26T06:10:03,42.805,6.029,0.001,-0.007,0.006,102.0,101.0,101.0,13.4,1505.2,327.7,-0.7,1.8,2471.251,13.28,0.007,171.9
2022-12-26T06:13:03,42.805,6.029,0.001,-0.031,0.011,101.0,101.0,102.0,13.3,1505.2,323.6,-0.8,1.8,2471.282,13.28,0.031,178.2
2022-12-26T06:16:03,42.805,6.029,0.007,-0.015,0.003,101.0,101.0,102.0,13.3,1505.2,324.4,-0.8,1.8,2471.309,13.29,0.016,155.0
2022-12-26T06:19:03,42.805,6.029,-0.011,-0.031,-0.004,101.0,101.0,102.0,13.4,1505.2,319.5,-0.7,1.8,2471.266,13.29,0.032,199.5
2022-12-26T06:22:03,42.805,6.029,-0.003,-0.019,0.0,101.0,102.0,102.0,13.3,1505.2,326.5,-0.7,1.8,2471.261,13.29,0.019,189.0
2022-12-26T06:25:03,42.805,6.029,0.001,-0.022,0.012,101.0,101.0,101.0,13.4,1505.2,331.5,-0.8,1.8,2471.268,13.29,0.022,177.4
2022-12-26T06:28:03,42.805,6.029,0.024,-0.04,0.014,101.0,101.0,102.0,13.4,1505.2,319.4,-0.8,1.8,2471.268,13.29,0.046,149.0
2022-12-26T06:31:03,42.805,6.029,0.016,-0.017,0.012,101.0,101.0,102.0,13.3,1505.2,324.9,-0.8,1.8,2471.234,13.29,0.023,136.7
2022-12-26T06:34:03,42.805,6.029,-0.001,-0.044,0.004,101.0,102.0,102.0,13.4,1505.2,331.5,-0.7,1.8,2471.303,13.29,0.044,181.3
2022-12-26T06:37:03,42.805,6.029,-0.014,-0.015,-0.003,101.0,102.0,101.0,13.4,1505.2,336.4,-0.8,1.8,2471.294,13.29,0.02,223.0
2022-12-26T06:40:03,42.805,6.029,0.043,-0.013,0.046,101.0,101.0,102.0,13.3,1505.2,318.1,-0.8,1.8,2471.312,13.29,0.044,106.8
2022-12-26T06:43:03,42.805,6.029,0.006,-0.021,0.019,98.0,101.0,102.0,13.4,1505.2,334.9,-0.7,1.8,2471.303,13.29,0.021,164.1
2022-12-26T06:46:03,42.805,6.029,0.011,-0.026,0.033,101.0,102.0,102.0,13.3,1505.2,319.8,-0.7,1.8,2471.29,13.29,0.028,157.1
2022-12-26T06:49:03,42.805,6.029,0.005,-0.02,0.0,100.0,102.0,102.0,13.4,1505.2,323.5,-0.7,1.8,2471.297,13.29,0.02,166.0
2022-12-26T06:52:03,42.805,6.029,0.014,-0.034,-0.003,100.0,102.0,102.0,13.4,1505.2,329.0,-0.7,1.8,2471.305,13.29,0.036,157.6
2022-12-26T06:55:03,42.805,6.029,0.003,-0.043,-0.012,102.0,101.0,103.0,13.4,1505.2,331.3,-0.8,1.8,2471.317,13.29,0.043,176.0
2022-12-26T06:58:03,42.805,6.029,-0.008,-0.028,-0.005,101.0,99.0,103.0,13.4,1505.2,330.5,-0.8,1.8,2471.313,13.29,0.029,195.9
2022-12-26T07:04:03,42.805,6.029,0.014,-0.029,0.017,101.0,100.0,102.0,13.4,1505.2,316.4,-0.7,1.8,2471.344,13.28,0.032,154.2
2022-12-26T07:07:03,42.805,6.029,0.0,-0.042,0.005,101.0,101.0,101.0,13.4,1505.2,329.3,-0.8,1.8,2471.387,13.28,0.042,180.0
2022-12-26T07:10:03,42.805,6.029,0.013,-0.029,-0.002,100.0,101.0,102.0,13.3,1505.2,333.8,-0.8,1.8,2471.344,13.28,0.031,155.9
2022-12-26T07:13:03,42.805,6.029,0.022,-0.027,0.018,102.0,102.0,101.0,13.4,1505.2,319.0,-0.8,1.8,2471.366,13.28,0.034,140.8
2022-12-26T07:16:03,42.805,6.029,0.011,-0.021,0.014,101.0,101.0,102.0,13.3,1505.2,328.9,-0.8,1.8,2471.373,13.29,0.023,152.4
2022-12-26T07:19:03,42.805,6.029,-0.013,-0.015,0.034,102.0,99.0,102.0,13.3,1505.2,318.3,-0.8,1.8,2471.349,13.29,0.019,220.9
2022-12-26T07:22:03,42.805,6.029,0.019,-0.028,0.01,101.0,101.0,102.0,13.4,1505.2,324.5,-0.8,1.8,2471.331,13.29,0.033,145.8
2022-12-26T07:25:03,42.805,6.029,0.03,-0.019,0.045,101.0,101.0,102.0,13.4,1505.2,322.8,-0.8,1.8,2471.386,13.29,0.035,122.3
2022-12-26T07:28:03,42.805,6.029,0.016,-0.014,0.039,100.0,101.0,102.0,13.4,1505.2,319.6,-0.8,1.8,2471.339,13.29,0.021,131.2
2022-12-26T07:31:03,42.805,6.029,0.002,-0.013,0.039,101.0,101.0,102.0,13.4,1505.2,322.2,-0.7,1.8,2471.377,13.29,0.013,171.3
2022-12-26T07:34:03,42.805,6.029,0.001,-0.027,0.019,102.0,101.0,102.0,13.3,1505.2,334.5,-0.7,1.8,2471.35,13.29,0.027,177.9
2022-12-26T07:37:03,42.805,6.029,-0.024,-0.009,0.017,101.0,101.0,103.0,13.4,1505.2,322.3,-0.7,1.8,2471.38,13.29,0.025,249.4
2022-12-26T07:40:03,42.805,6.029,-0.016,-0.031,0.003,99.0,103.0,103.0,13.3,1505.2,334.1,-0.8,1.8,2471.392,13.29,0.034,207.3
2022-12-26T07:43:03,42.805,6.029,-0.012,-0.042,-0.023,101.0,101.0,101.0,13.4,1505.2,327.6,-0.8,1.8,2471.388,13.29,0.043,195.9
2022-12-26T07:46:03,42.805,6.029,-0.002,-0.007,0.028,101.0,102.0,102.0,13.3,1505.2,327.4,-0.7,1.8,2471.376,13.29,0.007,195.9
2022-12-26T07:49:03,42.805,6.029,0.0,-0.019,0.024,102.0,99.0,103.0,13.4,1505.2,321.7,-0.8,1.8,2471.359,13.29,0.019,180.0
2022-12-26T07:52:03,42.805,6.029,0.0,-0.031,0.005,101.0,101.0,102.0,13.3,1505.2,323.9,-0.8,1.8,2471.369,13.29,0.03,180.0
2022-12-26T07:55:03,42.805,6.029,0.005,-0.018,0.026,101.0,102.0,103.0,13.3,1505.2,324.4,-0.7,1.8,2471.384,13.29,0.018,164.5
2022-12-26T07:58:03,42.805,6.029,-0.003,-0.024,-0.011,101.0,101.0,102.0,13.3,1505.2,319.4,-0.8,1.8,2471.4,13.29,0.024,187.1
2022-12-26T08:04:03,42.805,6.029,0.024,-0.024,0.021,102.0,101.0,102.0,13.3,1505.2,316.4,-0.8,1.8,2471.396,13.28,0.033,135.0
2022-12-26T08:07:03,42.805,6.029,0.036,-0.023,0.02,101.0,101.0,102.0,13.3,1505.2,323.7,-0.7,1.8,2471.454,13.28,0.042,122.6
2022-12-26T08:10:03,42.805,6.029,-0.001,-0.028,0.012,102.0,99.0,103.0,13.3,1505.2,328.5,-0.8,1.8,2471.404,13.28,0.028,182.0
2022-12-26T08:13:03,42.805,6.029,0.005,-0.003,0.032,100.0,100.0,103.0,13.4,1505.2,330.4,-0.7,1.8,2471.431,13.29,0.005,121.0
2022-12-26T08:16:03,42.805,6.029,-0.013,-0.023,0.0,103.0,100.0,102.0,13.3,1505.2,322.3,-0.8,1.8,2471.426,13.29,0.026,209.5
2022-12-26T08:19:03,42.805,6.029,0.02,-0.021,0.008,102.0,101.0,103.0,13.3,1505.2,327.7,-0.7,1.9,2471.401,13.29,0.028,136.4
2022-12-26T08:22:03,42.805,6.029,-0.003,-0.025,0.018,101.0,102.0,103.0,13.4,1505.2,333.0,-0.8,1.8,2471.442,13.29,0.025,186.8
2022-12-26T08:25:03,42.805,6.029,0.009,-0.048,-0.036,101.0,101.0,103.0,13.4,1505.2,320.2,-0.7,1.8,2471.403,13.29,0.048,169.4
2022-12-26T08:28:03,42.805,6.029,-0.009,-0.015,0.014,102.0,102.0,102.0,13.3,1505.2,334.9,-0.7,1.8,2471.443,13.29,0.017,211.0
2022-12-26T08:31:03,42.805,6.029,-0.004,-0.023,0.012,102.0,102.0,102.0,13.4,1505.2,325.3,-0.7,1.8,2471.418,13.29,0.023,189.9
2022-12-26T08:34:03,42.805,6.029,-0.005,-0.001,0.039,101.0,101.0,102.0,13.3,1505.2,333.4,-0.8,1.8,2471.406,13.29,0.005,258.7
2022-12-26T08:37:03,42.805,6.029,0.001,-0.028,-0.006,102.0,101.0,102.0,13.4,1505.2,332.2,-0.8,1.8,2471.4,13.29,0.028,178.0
2022-12-26T08:40:03,42.805,6.029,0.009,-0.019,0.007,100.0,101.0,102.0,13.4,1505.2,321.2,-0.8,1.8,2471.404,13.29,0.021,154.7
2022-12-26T08:43:03,42.805,6.029,-0.022,-0.029,-0.03,101.0,101.0,102.0,13.3,1505.2,318.5,-0.7,1.8,2471.43,13.29,0.036,217.2
2022-12-26T08:46:03,42.805,6.029,0.029,-0.04,-0.029,101.0,101.0,102.0,13.4,1505.2,316.9,-0.7,1.8,2471.389,13.29,0.049,144.1
2022-12-26T08:49:03,42.805,6.029,-0.003,-0.033,0.021,101.0,101.0,102.0,13.4,1505.2,330.0,-0.7,1.8,2471.44,13.29,0.033,185.2
2022-12-26T08:52:03,42.805,6.029,-0.002,-0.019,0.01,101.0,101.0,102.0,13.4,1505.2,318.3,-0.7,1.8,2471.402,13.29,0.019,186.0
2022-12-26T08:55:03,42.805,6.029,0.033,-0.04,0.012,101.0,101.0,103.0,13.4,1505.2,322.2,-0.8,1.8,2471.45,13.29,0.051,140.5
2022-12-26T08:58:03,42.805,6.029,0.015,-0.037,0.02,101.0,101.0,102.0,13.3,1505.2,326.6,-0.7,1.8,2471.441,13.29,0.039,157.9
2022-12-26T09:04:03,42.805,6.029,0.017,-0.033,-0.006,101.0,101.0,102.0,13.4,1505.2,324.7,-0.7,1.8,2471.46,13.28,0.037,152.7
2022-12-26T09:07:03,42.805,6.029,0.002,-0.021,-0.01,101.0,102.0,102.0,13.4,1505.2,331.9,-0.8,1.8,2471.452,13.28,0.021,174.6
2022-12-26T09:10:03,42.805,6.029,0.027,-0.026,0.012,100.0,102.0,102.0,13.4,1505.2,321.3,-0.8,1.8,2471.49,13.28,0.037,133.9
2022-12-26T09:13:03,42.805,6.029,-0.022,-0.01,-0.001,101.0,102.0,101.0,13.4,1505.2,316.5,-0.7,1.8,2471.458,13.29,0.024,245.6
2022-12-26T09:16:03,42.805,6.029,0.008,-0.021,-0.004,101.0,102.0,102.0,13.4,1505.2,321.4,-0.8,1.8,2471.468,13.29,0.022,159.1
2022-12-26T09:19:03,42.805,6.029,0.015,-0.014,0.044,101.0,101.0,102.0,13.4,1505.2,331.0,-0.8,1.8,2471.454,13.29,0.02,133.0
2022-12-26T09:22:03,42.805,6.029,0.02,-0.03,0.013,101.0,101.0,102.0,13.4,1505.2,318.8,-0.8,1.8,2471.45,13.29,0.036,146.3
2022-12-26T09:25:03,42.805,6.029,0.024,-0.04,0.007,101.0,102.0,102.0,13.4,1505.2,326.3,-0.8,1.8,2471.447,13.29,0.046,149.0
2022-12-26T09:28:03,42.805,6.029,0.035,-0.022,0.036,102.0,101.0,103.0,13.4,1505.2,325.5,-0.8,1.8,2471.426,13.29,0.041,122.2
2022-12-26T09:31:03,42.805,6.029,0.008,-0.031,0.013,101.0,101.0,103.0,13.4,1505.2,330.2,-0.8,1.8,2471.464,13.29,0.032,165.5
2022-12-26T09:34:03,42.805,6.029,-0.017,-0.032,-0.018,101.0,100.0,102.0,13.4,1505.2,328.4,-0.8,1.8,2471.454,13.29,0.036,208.0
2022-12-26T09:37:03,42.805,6.029,0.004,-0.025,-0.018,101.0,100.0,103.0,13.3,1505.2,317.4,-0.7,1.8,2471.452,13.29,0.025,170.9
2022-12-26T09:40:03,42.805,6.029,-0.019,-0.02,-0.011,100.0,101.0,102.0,13.3,1505.2,330.7,-0.8,1.8,2471.451,13.29,0.027,223.5
2022-12-26T09:43:03,42.805,6.029,0.002,-0.015,0.035,100.0,101.0,101.0,13.3,1505.2,322.8,-0.8,1.8,2471.455,13.29,0.015,172.4
2022-12-26T09:46:03,42.805,6.029,0.007,-0.029,0.01,100.0,102.0,102.0,13.3,1505.2,325.1,-0.7,1.8,2471.428,13.29,0.029,166.4
2022-12-26T09:49:03,42.805,6.029,0.002,-0.022,-0.012,100.0,101.0,102.0,13.4,1505.2,320.4,-0.8,1.8,2471.437,13.29,0.022,174.8
2022-12-26T09:52:03,42.805,6.029,0.007,-0.014,0.023,100.0,101.0,102.0,13.3,1505.2,328.7,-0.8,1.8,2471.429,13.29,0.015,153.4
2022-12-26T09:55:03,42.805,6.029,-0.017,-0.021,0.003,101.0,101.0,102.0,13.3,1505.2,333.0,-0.8,1.8,2471.44,13.29,0.027,219.0
2022-12-26T09:58:03,42.805,6.029,0.004,-0.037,-0.015,101.0,101.0,102.0,13.4,1505.2,329.7,-0.8,1.8,2471.407,13.29,0.037,173.8
2022-12-26T10:04:03,42.805,6.029,-0.013,-0.045,0.003,101.0,99.0,103.0,13.3,1505.2,335.7,-0.8,1.8,2471.456,13.28,0.046,196.1
2022-12-26T10:07:03,42.805,6.029,-0.011,-0.034,0.013,103.0,102.0,100.0,13.4,1505.2,323.4,-0.8,1.8,2471.459,13.28,0.035,197.9
2022-12-26T10:10:03,42.805,6.029,0.004,-0.036,0.017,102.0,101.0,102.0,13.3,1505.2,317.0,-0.7,1.8,2471.452,13.29,0.036,173.7
2022-12-26T10:13:03,42.805,6.029,0.007,-0.055,0.005,101.0,101.0,100.0,13.3,1505.2,333.8,-0.8,1.8,2471.448,13.29,0.055,172.7
2022-12-26T10:16:03,42.805,6.029,0.002,-0.04,0.001,100.0,102.0,101.0,13.4,1505.2,317.4,-0.8,1.8,2471.453,13.29,0.04,177.1
2022-12-26T10:19:03,42.805,6.029,0.014,-0.031,0.042,102.0,99.0,101.0,13.4,1505.2,330.8,-0.8,1.8,2471.439,13.29,0.034,155.7
2022-12-26T10:22:03,42.805,6.029,0.002,-0.054,-0.027,100.0,101.0,101.0,13.4,1505.2,323.2,-0.8,1.8,2471.44,13.29,0.054,177.9
2022-12-26T10:25:03,42.805,6.029,0.002,-0.048,-0.026,102.0,100.0,101.0,13.3,1505.2,331.4,-0.7,1.8,2471.443,13.29,0.048,177.6
2022-12-26T10:28:03,42.805,6.029,0.014,-0.033,0.047,101.0,102.0,101.0,13.3,1505.2,322.3,-0.8,1.8,2471.461,13.29,0.035,157.0
2022-12-26T10:31:03,42.805,6.029,0.017,-0.032,0.035,101.0,101.0,100.0,13.3,1505.2,328.8,-0.8,1.8,2471.43,13.29,0.036,152.0
2022-12-26T10:34:03,42.805,6.029,0.017,-0.046,0.027,101.0,101.0,101.0,13.4,1505.2,324.1,-0.8,1.8,2471.431,13.29,0.049,159.7
2022-12-26T10:37:03,42.805,6.029,0.014,-0.044,0.01,100.0,101.0,100.0,13.4,1505.2,316.6,-0.7,1.8,2471.411,13.29,0.046,162.4
2022-12-26T10:40:03,42.805,6.029,0.006,-0.032,0.018,99.0,101.0,102.0,13.4,1505.2,322.3,-0.7,1.8,2471.421,13.29,0.032,169.4
2022-12-26T10:43:03,42.805,6.029,0.009,-0.031,0.02,101.0,100.0,101.0,13.3,1505.2,324.2,-0.8,1.8,2471.4,13.29,0.032,163.8
2022-12-26T10:46:03,42.805,6.029,0.005,-0.038,0.021,101.0,100.0,101.0,13.4,1505.2,332.2,-0.8,1.8,2471.394,13.29,0.038,172.5
2022-12-26T10:49:03,42.805,6.029,-0.005,-0.043,0.003,102.0,99.0,101.0,13.4,1505.2,328.3,-0.7,1.8,2471.406,13.29,0.043,186.6
2022-12-26T10:52:03,42.805,6.029,-0.006,-0.018,0.036,102.0,101.0,101.0,13.3,1505.2,325.3,-0.8,1.8,2471.464,13.29,0.018,198.4
2022-12-26T10:55:03,42.805,6.029,-0.015,-0.021,0.035,102.0,100.0,101.0,13.4,1505.2,330.7,-0.8,1.8,2471.395,13.29,0.025,215.5